CW2927 Weather Reports


Display with metric or nautical units.
time (UTC)temp
F
wind
direction
speed
MPH
gust
MPH
rain 1hr
in
rain 24hr
in
rain mn
in
humidity
%
barometer
mb
20180525162708 82 273 7.0 21.0 0.00 0.00 0.00 48 1003.9
20180525162208 82 273 7.0 15.0 0.00 0.00 0.00 50 1003.9
20180525160708 81 268 6.0 16.0 0.00 0.00 0.00 50 1004.2
20180525160208 81 300 7.0 20.0 0.00 0.00 0.00 49 1004.3
20180525154708 80 257 6.0 17.0 0.00 0.00 0.00 52 1004.5
20180525154208 80 272 7.0 18.0 0.00 0.00 0.00 51 1004.6
20180525152708 79 264 5.0 20.0 0.00 0.00 0.00 52 1004.7
20180525152208 79 277 4.0 14.0 0.00 0.00 0.00 52 1004.7
20180525150708 78 262 3.0 14.0 0.00 0.00 0.00 53 1004.9
20180525150208 78 270 4.0 12.0 0.00 0.00 0.00 53 1004.9
20180525144708 77 294 6.0 15.0 0.00 0.00 0.00 54 1005.0
20180525144208 77 284 5.0 12.0 0.00 0.00 0.00 54 1005.2
20180525142708 76 274 5.0 17.0 0.00 0.00 0.00 54 1005.2
20180525142208 75 270 7.0 21.0 0.00 0.00 0.00 54 1005.3
20180525140708 74 281 5.0 14.0 0.00 0.00 0.00 56 1005.5
20180525140208 74 290 6.0 17.0 0.00 0.00 0.00 56 1005.6
20180525134708 73 269 5.0 12.0 0.00 0.00 0.00 58 1005.8
20180525134208 72 292 6.0 15.0 0.00 0.00 0.00 58 1005.8
20180525132708 71 269 5.0 12.0 0.00 0.00 0.00 60 1006.0
20180525132208 71 261 5.0 22.0 0.00 0.00 0.00 60 1006.0
20180525130708 69 278 6.0 13.0 0.00 0.00 0.00 61 1006.3
20180525130208 69 298 4.0 14.0 0.00 0.00 0.00 62 1006.3
20180525124708 68 265 4.0 16.0 0.00 0.00 0.00 63 1006.6
20180525124208 68 261 2.0 12.0 0.00 0.00 0.00 64 1006.6
20180525122708 67 289 5.0 13.0 0.00 0.00 0.00 63 1006.7
20180525122208 67 269 6.0 13.0 0.00 0.00 0.00 63 1006.8
20180525120708 67 276 3.0 13.0 0.00 0.00 0.00 64 1006.8
20180525120207 67 271 5.0 16.0 0.00 0.00 0.00 64 1006.8
20180525114708 66 306 4.0 14.0 0.00 0.00 0.00 65 1006.9
20180525114208 66 268 5.0 14.0 0.00 0.00 0.00 65 1006.8
20180525112708 65 261 5.0 9.0 0.00 0.00 0.00 66 1006.8
20180525112208 65 256 3.0 15.0 0.00 0.00 0.00 67 1006.9
20180525110708 64 252 2.0 12.0 0.00 0.00 0.00 68 1006.8
20180525110208 64 270 5.0 17.0 0.00 0.00 0.00 69 1006.9
20180525104708 63 257 3.0 8.0 0.00 0.00 0.00 69 1007.0
20180525104208 63 227 4.0 13.0 0.00 0.00 0.00 69 1007.1
20180525102708 62 240 2.0 12.0 0.00 0.00 0.00 70 1007.3
20180525102207 62 249 2.0 9.0 0.00 0.00 0.00 71 1007.3
20180525100708 62 228 3.0 12.0 0.00 0.00 0.00 71 1007.2
20180525100208 61 230 1.0 9.0 0.00 0.00 0.00 71 1007.2
20180525094708 61 223 1.0 7.0 0.00 0.00 0.00 71 1007.3
20180525094208 61 254 1.0 10.0 0.00 0.00 0.00 71 1007.2
20180525092708 61 232 3.0 12.0 0.00 0.00 0.00 70 1006.9
20180525092208 61 234 2.0 12.0 0.00 0.00 0.00 70 1007.0
20180525090708 61 239 1.0 7.0 0.00 0.00 0.00 69 1006.9
20180525090208 61 225 2.0 10.0 0.00 0.00 0.00 69 1007.0
20180525084708 61 250 2.0 12.0 0.00 0.00 0.00 68 1006.9
20180525084208 61 279 3.0 14.0 0.00 0.00 0.00 68 1006.9
20180525082708 61 238 2.0 12.0 0.00 0.00 0.00 67 1006.9
20180525082207 61 253 3.0 9.0 0.00 0.00 0.00 67 1007.0
20180525080707 61 254 5.0 14.0 0.00 0.00 0.00 66 1007.1
20180525080207 61 269 1.0 12.0 0.00 0.00 0.00 66 1007.1
20180525074708 61 248 1.0 7.0 0.00 0.00 0.00 65 1007.3
20180525074208 61 252 1.0 12.0 0.00 0.00 0.00 65 1007.4
20180525072708 61 247 2.0 12.0 0.00 0.00 0.00 65 1007.3
20180525072207 61 255 2.0 13.0 0.00 0.00 0.00 65 1007.4
20180525070707 62 248 5.0 12.0 0.00 0.00 0.00 64 1007.3
20180525070208 62 249 4.0 12.0 0.00 0.00 0.00 63 1007.5
20180525064708 62 264 5.0 12.0 0.00 0.00 0.00 62 1007.6
20180525064209 62 259 3.0 12.0 0.00 0.00 0.00 62 1007.6
20180525062708 62 247 2.0 10.0 0.00 0.00 0.00 61 1007.9
20180525062208 62 268 5.0 12.0 0.00 0.00 0.00 60 1007.8
20180525060707 62 259 1.0 8.0 0.00 0.00 0.00 59 1008.1
20180525060207 62 228 2.0 12.0 0.00 0.00 0.00 59 1008.0
20180525054707 62 217 3.0 9.0 0.00 0.00 0.00 58 1008.2
20180525054208 62 225 2.0 14.0 0.00 0.00 0.00 57 1008.3
20180525052708 62 221 3.0 10.0 0.00 0.00 0.00 56 1008.3
20180525052209 62 252 4.0 15.0 0.00 0.00 0.00 55 1008.5
20180525050708 61 234 4.0 10.0 0.00 0.00 0.00 54 1008.7
20180525050208 61 264 4.0 12.0 0.00 0.00 0.00 53 1008.7
20180525044708 61 272 3.0 12.0 0.00 0.00 0.00 52 1008.9
20180525044208 61 251 5.0 13.0 0.00 0.00 0.00 52 1009.0
20180525042707 60 237 4.0 8.0 0.00 0.00 0.00 52 1009.3
20180525042208 60 223 2.0 10.0 0.00 0.00 0.00 52 1009.4
20180525040708 60 225 2.0 12.0 0.00 0.00 0.00 52 1009.6
20180525040208 60 229 2.0 8.0 0.00 0.00 0.00 52 1009.7
20180525034708 60 213 1.0 3.0 0.00 0.00 0.00 52 1009.9
20180525034208 60 231 1.0 9.0 0.00 0.00 0.00 52 1010.1
20180525032708 60 225 1.0 9.0 0.00 0.00 0.00 52 1010.4
20180525032208 60 225 3.0 9.0 0.00 0.00 0.00 51 1010.6
20180525030708 60 213 2.0 8.0 0.00 0.00 0.00 52 1011.0
20180525030208 60 230 2.0 9.0 0.00 0.00 0.00 51 1011.0
20180525024707 60 226 1.0 12.0 0.00 0.00 0.00 51 1011.2
20180525024208 61 223 2.0 12.0 0.00 0.00 0.00 51 1011.3
20180525022708 61 240 1.0 7.0 0.00 0.00 0.00 51 1011.7
20180525022208 61 251 3.0 8.0 0.00 0.00 0.00 51 1011.9
20180525020708 61 231 2.0 8.0 0.00 0.00 0.00 51 1012.0
20180525020208 62 252 1.0 12.0 0.00 0.00 0.00 50 1012.1
20180525014707 62 230 4.0 9.0 0.00 0.00 0.00 49 1012.3
20180525014208 62 234 2.0 8.0 0.00 0.00 0.00 48 1012.3
20180525012708 63 226 2.0 8.0 0.00 0.00 0.00 47 1012.3
20180525012208 63 222 3.0 12.0 0.00 0.00 0.00 46 1012.3
20180525010707 64 224 5.0 8.0 0.00 0.00 0.00 44 1012.4
20180525010207 64 210 1.0 5.0 0.00 0.00 0.00 44 1012.3
20180525004707 65 223 1.0 5.0 0.00 0.00 0.00 41 1012.4
20180525004207 66 216 2.0 8.0 0.00 0.00 0.00 41 1012.4
20180525002708 66 219 2.0 6.0 0.00 0.00 0.00 40 1012.7
20180525002208 67 227 2.0 9.0 0.00 0.00 0.00 40 1012.7
20180525000707 68 227 2.0 7.0 0.00 0.00 0.00 40 1012.8
20180525000207 68 225 1.0 7.0 0.00 0.00 0.00 39 1012.9
20180524234708 69 204 3.0 6.0 0.00 0.00 0.00 38 1013.0
20180524234207 69 216 2.0 8.0 0.00 0.00 0.00 37 1013.0
20180524232708 70 225 1.0 9.0 0.00 0.00 0.00 36 1013.3
20180524232207 71 274 2.0 9.0 0.00 0.00 0.00 35 1013.3
20180524230707 71 284 3.0 7.0 0.00 0.00 0.00 34 1013.5
20180524230208 71 233 1.0 10.0 0.00 0.00 0.00 34 1013.6
20180524224707 72 225 1.0 10.0 0.00 0.00 0.00 33 1013.7
20180524224207 72 251 4.0 10.0 0.00 0.00 0.00 32 1013.7
20180524222707 72 255 2.0 7.0 0.00 0.00 0.00 31 1013.9
20180524222208 72 246 1.0 12.0 0.00 0.00 0.00 31 1013.9
20180524220707 72 261 2.0 8.0 0.00 0.00 0.00 32 1014.2
20180524220207 72 250 5.0 12.0 0.00 0.00 0.00 31 1014.3
20180524214707 72 223 5.0 12.0 0.00 0.00 0.00 32 1014.5
20180524214207 71 230 4.0 15.0 0.00 0.00 0.00 33 1014.6
20180524212707 71 245 3.0 15.0 0.00 0.00 0.00 34 1015.0
20180524212207 71 236 2.0 14.0 0.00 0.00 0.00 33 1015.1
20180524210707 71 289 3.0 12.0 0.00 0.00 0.00 32 1015.4
20180524210207 71 260 3.0 12.0 0.00 0.00 0.00 33 1015.4
20180524204707 70 254 5.0 14.0 0.00 0.00 0.00 32 1015.5
20180524204208 70 245 7.0 20.0 0.00 0.00 0.00 31 1015.6
20180524202708 71 247 3.0 17.0 0.00 0.00 0.00 32 1015.8
20180524202207 71 243 3.0 15.0 0.00 0.00 0.00 32 1015.9
20180524200708 70 262 3.0 9.0 0.00 0.00 0.00 33 1015.9
20180524200208 70 284 3.0 18.0 0.00 0.00 0.00 32 1016.1
20180524194707 70 209 2.0 10.0 0.00 0.00 0.00 33 1016.4
20180524194208 70 254 3.0 14.0 0.00 0.00 0.00 32 1016.5
20180524192707 69 277 3.0 9.0 0.00 0.00 0.00 36 1016.7
20180524192208 68 303 4.0 12.0 0.00 0.00 0.00 33 1016.8
20180524190707 68 282 1.0 5.0 0.00 0.00 0.00 34 1017.0
20180524190207 68 244 2.0 10.0 0.00 0.00 0.00 35 1017.1
20180524184707 67 241 2.0 10.0 0.00 0.00 0.00 36 1017.2
20180524184207 66 272 2.0 9.0 0.00 0.00 0.00 36 1017.3
20180524182708 64 224 3.0 8.0 0.00 0.00 0.00 37 1017.5
20180524182207 64 210 1.0 7.0 0.00 0.00 0.00 36 1017.6
20180524180708 64 335 5.0 12.0 0.00 0.00 0.00 34 1017.9
20180524180207 64 313 1.0 9.0 0.00 0.00 0.00 36 1017.9
20180524174707 64 319 0.0 3.0 0.00 0.00 0.00 35 1018.1
20180524174207 64 325 3.0 10.0 0.00 0.00 0.00 33 1018.1
20180524172708 65 312 2.0 7.0 0.00 0.00 0.00 32 1018.0
20180524172207 65 301 0.0 12.0 0.00 0.00 0.00 34 1018.0
20180524170707 66 328 1.0 12.0 0.00 0.00 0.00 32 1018.3
20180524170207 65 310 6.0 13.0 0.00 0.00 0.00 35 1018.3
20180524164708 65 301 5.0 10.0 0.00 0.00 0.00 34 1018.7
20180524164207 64 320 1.0 12.0 0.00 0.00 0.00 32 1018.8